Regional Weather Roundup
Issued by NWS

Home | Current Version | Previous Version | Text Only | Print | Product List | Glossary On
Versions: 1 2 3 4 5 6 7 8 9 10 11 12 13 14 15 16 17 18 19 20 21 22 23 24 25 26 27 28 29 30 31 32 33 34 35 36 37 38 39 40 41 42 43 44 45 46 47 48 49 50
000
ASUS43 KDTX 180601
RWRMI
MICHIGAN HOURLY REGIONAL WEATHER ROUNDUP
NATIONAL WEATHER SERVICE DETROIT/PONTIAC MI
100 AM EST WED JAN 18 2017

NOTE: "FAIR" INDICATES FEW OR NO CLOUDS BELOW 12,000 FEET WITH NO
SIGNIFICANT WEATHER AND/OR OBSTRUCTION TO VISIBILITY.

MIZ047>049-052>055-059>063-066>070-074>076-081>083-180700-
SOUTHEAST LOWER MICHIGAN

CITY           SKY/WX    TMP DP  RH WIND       PRES   REMARKS
ADRIAN         CLOUDY    37  36  96 W9G18     29.95R WCI  30
6HR MIN TEMP:  37; 6HR MAX TEMP:  40; 6HR PCP: TRACE;

ALMA           CLOUDY    36  35  98 W6        29.90S FOG     WCI  31
6HR MIN TEMP:  34; 6HR MAX TEMP:  36;

ANN ARBOR      CLOUDY    37  36  96 SW9       29.92S WCI  30
BAD AXE        FOG       33  33 100 W7        29.87R VSB 1   WCI  27
6HR MIN TEMP:  33; 6HR MAX TEMP:  34;

CARO           CLOUDY    34  33  99 W7        29.88S FOG     WCI  28
DETROIT        CLOUDY    39  37  92 W10       29.93R WCI  32
6HR MIN TEMP:  39; 6HR MAX TEMP:  43;

FLINT          CLOUDY    36  35  96 W8        29.90S WCI  30
6HR MIN TEMP:  35; 6HR MAX TEMP:  36;

GROSSE ILE     CLOUDY    39  37  90 CALM      29.92R
6HR MIN TEMP:  39; 6HR MAX TEMP:  42;

HILLSDALE      CLOUDY    34  32  93 W14       29.92S WCI  24
HOWELL         CLOUDY    36  35  96 W6        29.91R FOG     WCI  31

CITY           SKY/WX    TMP DP  RH WIND       PRES   REMARKS
JACKSON        CLOUDY    36  34  92 W10G21    29.92S WCI  28
6HR MIN TEMP:  36; 6HR MAX TEMP:  38;

LAMBERTVILLE   CLOUDY    40  37  87 W9G17     29.95R WCI  34
6HR MIN TEMP:  40; 6HR MAX TEMP:  44;

LANSING        CLOUDY    37  34  89 W10       29.93R FOG     WCI  30
6HR MIN TEMP:  37; 6HR MAX TEMP:  38; 6HR PCP: TRACE;

LAPEER         CLOUDY    36  36 100 W7        29.88S FOG     WCI  30
6HR MIN TEMP:  35; 6HR MAX TEMP:  37;

MASON          CLOUDY    36  36 100 W9        29.92R FOG     WCI  29
MONROE         CLOUDY    38  37  96 W12       29.93R WCI  31
MT. CLEMENS    CLOUDY    38  38  99 W9        29.88S WCI  32
6HR MIN TEMP:  38; 6HR MAX TEMP:  42; 6HR PCP:  0.02;

PONTIAC        CLOUDY    36  34  92 W10       29.88S FOG     WCI  28
6HR MIN TEMP:  36; 6HR MAX TEMP:  39; 6HR PCP: TRACE;

PORT HOPE        N/A     34  34 100 W8        29.84R WCI  27
6HR MIN TEMP:  34; 6HR MAX TEMP:  35;

PORT HURON     CLOUDY    36  36 100 W6        29.89S WCI  31
TRI CITIES     CLOUDY    34  34 100 W7        29.90R FOG     WCI  28
6HR MIN TEMP:  34; 6HR MAX TEMP:  35;

MIDLAND        CLOUDY    35  34  96 W3        29.88S FOG
6HR MIN TEMP:  35; 6HR MAX TEMP:  36;

TROY           CLOUDY    38  35  89 W7        29.92S WCI  33
SAGINAW HB     CLOUDY    36  32  87 W8        29.89S FOG     WCI  29
$$
MIZ043>046-050>051-056>058-064>065-071>073-077>080-180700-
SOUTHWEST LOWER MICHIGAN

CITY           SKY/WX    TMP DP  RH WIND       PRES   REMARKS
BATTLE CREEK   LGT RAIN  36  35  96 W15       29.94S WCI  27
6HR MIN TEMP:  36; 6HR MAX TEMP:  38; 6HR PCP: TRACE;

BENTON HARBOR  CLOUDY    37  34  89 W13       29.98R WCI  29
6HR MIN TEMP:  36; 6HR MAX TEMP:  38; 6HR PCP:  0.03;

BIG RAPIDS     CLOUDY    34  33  96 W3        29.89R
6HR MIN TEMP:  33; 6HR MAX TEMP:  34; 6HR PCP:  0.01;

COLDWATER      CLOUDY    35  35 100 W10G16    29.95S WCI  28
6HR MIN TEMP:  35; 6HR MAX TEMP:  38;

FREMONT        FOG       35  35 100 W6        29.91S VSB 1/2 WCI  30
HOLLAND        CLOUDY    36  34  92 W8        29.95R WCI  30
6HR MIN TEMP:  36; 6HR MAX TEMP:  37; 6HR PCP: TRACE;

GRAND RAPIDS   CLOUDY    36  34  92 W9        29.92S FOG     WCI  29
6HR MIN TEMP:  36; 6HR MAX TEMP:  37; 6HR PCP:  0.01;

IONIA          CLOUDY    35  35  99 W8        29.91R FOG     WCI  29
6HR MIN TEMP:  35; 6HR MAX TEMP:  36;

KALAMAZOO      LGT RAIN  36  33  89 W10       29.95S FOG     WCI  28
6HR MIN TEMP:  36; 6HR MAX TEMP:  38; 6HR PCP: TRACE;

LUDINGTON      CLOUDY    36  36 100 NW3       29.91R FOG
6HR MIN TEMP:  33; 6HR MAX TEMP:  36; 6HR PCP:  0.02;

MARSHALL       CLOUDY    36  35  97 W9        29.93S WCI  29
6HR MIN TEMP:  36; 6HR MAX TEMP:  37;

MOUNT PLEASANT CLOUDY    34  34  99 W5        29.88S FOG     WCI  30
6HR MIN TEMP:  34; 6HR MAX TEMP:  34;

MUSKEGON       CLOUDY    36  35  96 W7        29.94R FOG     WCI  30
6HR MIN TEMP:  36; 6HR MAX TEMP:  37; 6HR PCP: TRACE;

SOUTH HAVEN    CLOUDY    36  35  96 W8        29.97R WCI  30
$$
MIZ016>042-180700-
NORTHERN LOWER MICHIGAN

CITY           SKY/WX    TMP DP  RH WIND       PRES   REMARKS
ALPENA         CLOUDY    33  32  96 N6        29.88S FOG     WCI  28
6HR MIN TEMP:  33; 6HR MAX TEMP:  34;

BELLAIRE       CLOUDY    32  32  99 CALM      29.91R FOG
6HR MIN TEMP:  32; 6HR MAX TEMP:  34;

CADILLAC       FOG       34  32  95 W3        29.86S VSB 3/4
CHARLEVOIX     CLOUDY    32  32 100 CALM      29.93S FOG
6HR MIN TEMP:  32; 6HR MAX TEMP:  33;

FRANKFORT      FOG      N/A N/A N/A CALM      29.92R VSB 3/4
GAYLORD        CLOUDY    32  29  88 CALM      29.86S
6HR MIN TEMP:  32; 6HR MAX TEMP:  34;

GRAYLING       CLOUDY    34  33  95 CALM      29.87S FOG
6HR MIN TEMP:  33; 6HR MAX TEMP:  38;

HARBOR SPRINGS CLOUDY    32  32  97 CALM      29.90S FOG
HOUGHTON LAKE  CLOUDY    33  32  96 NW5       29.87R FOG     WCI  29
6HR MIN TEMP:  33; 6HR MAX TEMP:  34;

MANISTEE       CLOUDY    35  34  96 NW5       29.91R FOG     WCI  31
OSCODA         CLOUDY    35  34  97 NW3       29.86S FOG
6HR MIN TEMP:  35; 6HR MAX TEMP:  36;

PELLSTON       FOG       32  30  92 NW3       29.90S VSB 1/2
6HR MIN TEMP:  32; 6HR MAX TEMP:  32;

ROGERS CITY    CLOUDY    33  32  95 CALM      29.90R FOG
TRAVERSE CITY  CLOUDY    34  33  96 NW6       29.90R FOG     WCI  29
6HR MIN TEMP:  34; 6HR MAX TEMP:  36;

$$
MIZ007>008-015-180700-
EASTERN UPPER MICHIGAN

CITY           SKY/WX    TMP DP  RH WIND       PRES   REMARKS
KINROSS        CLOUDY    31  28  89 S3        29.89S
6HR MIN TEMP:  30; 6HR MAX TEMP:  32;

MACKINAC ISLAN CLOUDY    31  31 100 CALM      29.89S FOG
6HR MIN TEMP:  31; 6HR MAX TEMP:  32;

NEWBERRY       PTCLDY    28  27  95 SW5       29.88F WCI  23
6HR MIN TEMP:  27; 6HR MAX TEMP:  32;

S. S. MARIE    CLOUDY    32  26  78 CALM      29.89R
6HR MIN TEMP:  32; 6HR MAX TEMP:  36;

MUNISING         N/A     27  25  92 S6        29.89S WCI  20
6HR MIN TEMP:  26; 6HR MAX TEMP:  34;

$$
MIZ004>006-011>014-085-180700-
CENTRAL UPPER MICHIGAN

CITY           SKY/WX    TMP DP  RH WIND       PRES   REMARKS
MANISTIQUE     CLOUDY    32  31  97 CALM      29.91R
6HR MIN TEMP:  32; 6HR MAX TEMP:  33;

ESCANABA       CLOUDY    33  32  96 W5        29.93R WCI  29
6HR MIN TEMP:  33; 6HR MAX TEMP:  34;

SAWYER-GWINN   FOG       19  17  94 CALM      29.88S VSB 1/4
6HR MIN TEMP:  17; 6HR MAX TEMP:  31;

$$
MIZ001>003-009>011-084-180700-
WESTERN UPPER MICHIGAN

CITY           SKY/WX    TMP DP  RH WIND       PRES   REMARKS
IRON MOUNTAIN  FOG       18  15  88 CALM      29.89R VSB 1/2
6HR MIN TEMP:  18; 6HR MAX TEMP:  34;

HOUGHTON       CLOUDY    30  23  75 W14       29.83S WCI  19
6HR MIN TEMP:  19; 6HR MAX TEMP:  30;

COPPER HARBOR    N/A     21  19  92 VRB3      29.85R
6HR MIN TEMP:  20; 6HR MAX TEMP:  31;

IRONWOOD       CLOUDY    30  25  81 SW9       29.88F WCI  22
6HR MIN TEMP:  16; 6HR MAX TEMP:  30;

$$

ABBREVIATIONS USED IN REMARKS
   TC - TEMPERATURE IN CELSIUS
  WCI - WIND CHILL INDEX
   HX - HEAT INDEX
  VSB - VISIBILITY




USA.gov is the U.S. government's official web portal to all federal, state and local government web resources and services.